[[{"header":{"parameterUnit":"m.s-1","parameterCategory":1,"la1":30.2991,"la2":30.254,"lo1":-89.0895,"lo2":-89.0444,"dy":0.0017,"dx":0.0017,"nx":28,"ny":28,"refTime":"2024-05-16T21:00:00:Z","depth":0,"parameterNumber":2,"parameterNumberName":"U-component_of_WINDS"},"data":[0,0,0,0,0,0,0,0,0,0,0,0,0,0,0,0,0,0,0,0,0,0,0,0,0,0,0,0,0,0,0,0,0,0,0,0,0,0,0,0,0,0,0,0,0,0,0,0,0,0,0,0,0,0,0,0,0,0,-1.1454,-1.1453,0,-1.1412,-1.1411,-1.1411,-1.1383,-1.1383,-1.1383,-1.1383,-1.1341,-1.134,-1.1339,0,0,0,0,0,0,0,0,0,0,0,0,0,-1.1512,-1.1511,-1.1454,-1.1453,-1.1453,-1.1412,-1.1411,-1.1411,-1.1383,-1.1383,-1.1383,-1.1382,-1.1341,-1.134,-1.1339,0,0,0,0,0,0,0,0,0,0,0,0,0,-1.148,-1.1511,-1.1454,-1.1434,-1.1432,-1.1412,-1.1411,-1.1411,-1.1383,-1.1383,-1.1383,-1.1382,-1.1342,-1.134,-1.1339,-1.1336,0,0,-1.1335,-1.1334,0,0,0,0,0,0,0,0,-1.1482,-1.1478,-1.1437,-1.1435,-1.1433,-1.1402,-1.1417,-1.1386,-1.1383,-1.1402,-1.1383,-1.1382,-1.1362,-1.1359,-1.1351,-1.1334,-1.1332,-1.1334,-1.1334,-1.1333,-1.1333,0,0,0,0,0,0,0,-1.1484,-1.148,-1.1437,-1.1437,-1.1434,-1.1428,-1.1423,-1.1411,-1.1384,-1.14,-1.1398,-1.1393,-1.136,-1.1353,-1.135,-1.1331,-1.1334,-1.1333,-1.1332,-1.1332,-1.1312,-1.1312,0,0,0,0,0,0,-1.149,-1.1482,-1.1438,-1.1436,-1.1457,-1.1427,-1.1422,-1.1412,-1.1384,-1.1379,-1.1394,-1.1392,-1.1355,-1.1352,-1.1349,-1.1344,-1.1333,-1.1332,-1.1331,-1.1311,-1.1312,-1.1312,0,0,0,0,0,0,-1.1491,-1.1486,-1.144,-1.1458,-1.1452,-1.1426,-1.1416,-1.1412,-1.1404,-1.1379,-1.1374,-1.1391,-1.1355,-1.1351,-1.134,-1.1342,-1.1331,-1.133,-1.1311,-1.1312,-1.1312,-1.1335,0,0,0,0,0,0,-1.1493,-1.1487,-1.1484,-1.1458,-1.1451,-1.1431,-1.1416,-1.1411,-1.1402,-1.1399,-1.1375,-1.1371,-1.1354,-1.1342,-1.1338,-1.134,-1.1329,-1.1311,-1.1311,-1.1312,-1.1333,-1.1336,-1.1338,0,0,0,0,0,-1.1495,-1.1492,-1.1484,-1.1479,-1.1448,-1.1431,-1.1427,-1.1408,-1.1402,-1.14,-1.1384,-1.1371,-1.1343,-1.1341,-1.1337,-1.1338,-1.131,-1.1311,-1.1312,-1.1333,-1.1335,-1.1338,0,0,0,0,0,0,-1.1519,-1.1488,-1.1479,-1.1468,-1.1452,-1.1426,-1.1423,-1.1411,-1.1397,-1.1396,-1.1374,-1.1368,-1.136,-1.1348,-1.1346,-1.1335,-1.1325,-1.1325,-1.1343,-1.1345,-1.1347,-1.135,-1.1327,0,0,0,0,0,-1.1523,-1.1511,-1.1485,-1.1478,-1.1471,-1.1449,-1.144,-1.1428,-1.1411,-1.1404,-1.1387,-1.1372,-1.136,-1.1352,-1.1339,-1.1332,-1.1327,-1.1332,-1.1334,-1.1336,-1.1335,-1.1333,-1.1334,-1.1314,-1.1314,-1.1314,0,0,-1.153,-1.1513,-1.1506,-1.1482,-1.1469,-1.1458,-1.1443,-1.1432,-1.1424,-1.1402,-1.1391,-1.1379,-1.136,-1.1352,-1.1347,-1.1341,-1.134,-1.1336,-1.1338,-1.1337,-1.1333,-1.1335,-1.1337,-1.1315,-1.1315,-1.1315,0,0,-1.1539,-1.1524,-1.1517,-1.1504,-1.1484,-1.147,-1.1468,-1.1445,-1.1436,-1.1424,-1.1408,-1.1399,-1.1378,-1.1366,-1.1357,-1.1365,-1.1352,-1.1361,-1.1372,-1.1369,-1.1371,-1.1372,-1.1375,-1.1377,-1.1361,-1.1361,-1.1361,0,-1.1551,-1.1534,-1.1515,-1.1505,-1.1496,-1.1476,-1.147,-1.1458,-1.1435,-1.1429,-1.1424,-1.1398,-1.1384,-1.1373,-1.1376,-1.1369,-1.1367,-1.1363,-1.1372,-1.1373,-1.1374,-1.1377,-1.1378,-1.1363,-1.1362,-1.1362,-1.1362,0,-1.1551,-1.1539,-1.1536,-1.1515,-1.1505,-1.1497,-1.1477,-1.147,-1.1459,-1.1446,-1.1436,-1.1419,-1.1403,-1.14,-1.1388,-1.1388,-1.1385,-1.1376,-1.1366,-1.1378,-1.138,-1.1381,-1.1364,-1.1364,-1.1364,-1.1363,0,0,-1.1571,-1.1541,-1.154,-1.1531,-1.1508,-1.1499,-1.1492,-1.1476,-1.1471,-1.1457,-1.145,-1.1434,-1.1426,-1.1416,-1.1404,-1.1402,-1.141,-1.1393,-1.1393,-1.1397,-1.141,-1.1416,-1.1418,-1.1403,-1.1403,-1.1403,-1.1411,0,-1.1576,-1.156,-1.1544,-1.1534,-1.1524,-1.1507,-1.15,-1.1487,-1.1475,-1.1465,-1.1453,-1.1442,-1.1432,-1.1426,-1.1423,-1.141,-1.1412,-1.1409,-1.1397,-1.1397,-1.1401,-1.1419,-1.1425,-1.1434,-1.1412,-1.1412,-1.1412,0,-1.1579,-1.1566,-1.1556,-1.1536,-1.1531,-1.1526,-1.1511,-1.1502,-1.1487,-1.1479,-1.147,-1.1457,-1.1449,-1.1441,-1.1431,-1.1429,-1.1423,-1.1416,-1.1416,-1.1414,-1.1404,-1.1417,-1.1436,-1.1437,-1.1413,-1.1413,-1.1413,0,-1.1596,-1.1576,-1.1567,-1.156,-1.1537,-1.1533,-1.1524,-1.1508,-1.1501,-1.1489,-1.1484,-1.1472,-1.1465,-1.1456,-1.1441,-1.1436,-1.1432,-1.1423,-1.1426,-1.1426,-1.1425,-1.1425,-1.1443,-1.1422,-1.1422,-1.1422,-1.1422,0,-1.1603,-1.1597,-1.1574,-1.1569,-1.1562,-1.1545,-1.1539,-1.1528,-1.1515,-1.1508,-1.1493,-1.1487,-1.1468,-1.146,-1.1448,-1.1442,-1.1439,-1.1433,-1.143,-1.1434,-1.1435,-1.1429,-1.1428,-1.1422,-1.1422,-1.1422,-1.1422,0,-1.1619,-1.1604,-1.1593,-1.1573,-1.1568,-1.1564,-1.1547,-1.1542,-1.1531,-1.1522,-1.1519,-1.1501,-1.1491,-1.1476,-1.1461,-1.1453,-1.1449,-1.1444,-1.1454,-1.1452,-1.1456,-1.1456,-1.1471,-1.1473,-1.1451,-1.1451,-1.1452,0,-1.1625,-1.162,-1.16,-1.1594,-1.1585,-1.1576,-1.1569,-1.1552,-1.1545,-1.1529,-1.1527,-1.1516,-1.1506,-1.1491,-1.1477,-1.1467,-1.1461,-1.1467,-1.1459,-1.1464,-1.1461,-1.1462,-1.1461,-1.1469,-1.1469,-1.1469,-1.147,0,-1.1636,-1.1629,-1.1619,-1.1607,-1.1599,-1.1588,-1.1577,-1.1573,-1.1555,-1.1548,-1.1538,-1.1531,-1.1517,-1.1506,-1.1494,-1.1485,-1.1475,-1.1473,-1.1473,-1.1476,-1.1482,-1.148,-1.1459,-1.1472,-1.1472,-1.1471,-1.1471,-1.1471,-1.1647,-1.1642,-1.1628,-1.1618,-1.1608,-1.1599,-1.1593,-1.1582,-1.1573,-1.156,-1.1551,-1.1542,-1.153,-1.1512,-1.1504,-1.1497,-1.1492,-1.1493,-1.1493,-1.1493,-1.1495,-1.1484,-1.1495,-1.1495,-1.1495,-1.1495,-1.1495,0,-1.1658,-1.1648,-1.1639,-1.1624,-1.1617,-1.1608,-1.1596,-1.1591,-1.1583,-1.1572,-1.1563,-1.1552,-1.1543,-1.1529,-1.1519,-1.1516,-1.1511,-1.1514,-1.1514,-1.1512,-1.1499,-1.15,-1.1519,-1.1519,-1.1519,-1.1519,-1.1519,-1.1519,-1.1662,-1.1655,-1.1647,-1.1635,-1.1626,-1.1616,-1.161,-1.1602,-1.1594,-1.1582,-1.1575,-1.1566,-1.1554,-1.1543,-1.1535,-1.1531,-1.1528,-1.1533,-1.1527,-1.1515,-1.1513,-1.1511,-1.1512,-1.1532,-1.1532,-1.1541,-1.1541,-1.1541]},{"header":{"parameterUnit":"m.s-1","parameterCategory":1,"la1":30.2991,"la2":30.254,"lo1":-89.0895,"lo2":-89.0444,"dy":0.0017,"dx":0.0017,"nx":28,"ny":28,"refTime":"2024-05-16T21:00:00:Z","depth":0,"parameterNumber":3,"parameterNumberName":"V-component_of_WINDS"},"data":[0,0,0,0,0,0,0,0,0,0,0,0,0,0,0,0,0,0,0,0,0,0,0,0,0,0,0,0,0,0,0,0,0,0,0,0,0,0,0,0,0,0,0,0,0,0,0,0,0,0,0,0,0,0,0,0,0,0,3.7024,3.7025,0,3.7051,3.7051,3.7051,3.712,3.7122,3.7123,3.7124,3.7146,3.7145,3.7144,0,0,0,0,0,0,0,0,0,0,0,0,0,3.7029,3.7028,3.7024,3.7025,3.7025,3.7051,3.7051,3.7051,3.712,3.7122,3.7123,3.7125,3.7146,3.7145,3.7144,0,0,0,0,0,0,0,0,0,0,0,0,0,3.7038,3.7028,3.7024,3.7062,3.7066,3.7051,3.7051,3.7051,3.7119,3.7122,3.7124,3.7126,3.7146,3.7145,3.7144,3.7092,0,0,3.714,3.7139,0,0,0,0,0,0,0,0,3.7037,3.7038,3.7056,3.706,3.7064,3.7085,3.7061,3.7065,3.7119,3.7099,3.7124,3.7127,3.7123,3.7124,3.7124,3.7093,3.7094,3.714,3.7139,3.7139,3.7138,0,0,0,0,0,0,0,3.7037,3.7037,3.7035,3.7057,3.7061,3.7077,3.7081,3.7062,3.7098,3.7101,3.7106,3.7108,3.7125,3.7125,3.7125,3.7094,3.714,3.7139,3.7138,3.7138,3.7022,3.7019,0,0,0,0,0,0,3.7031,3.7036,3.7034,3.7035,3.7056,3.7075,3.7079,3.7075,3.7098,3.7104,3.7106,3.7112,3.7126,3.7126,3.7126,3.7066,3.7139,3.7137,3.7137,3.7024,3.7021,3.7019,0,0,0,0,0,0,3.7031,3.703,3.7033,3.7037,3.7039,3.7072,3.7068,3.7075,3.7074,3.7103,3.7109,3.7099,3.7128,3.7127,3.71,3.7068,3.7137,3.7136,3.7027,3.7023,3.702,3.6947,0,0,0,0,0,0,3.7031,3.703,3.7011,3.7036,3.7038,3.7008,3.7066,3.7074,3.7073,3.7079,3.7098,3.7103,3.7129,3.7102,3.7099,3.7067,3.7135,3.703,3.7025,3.7021,3.6952,3.6941,3.6932,0,0,0,0,0,3.7031,3.6988,3.701,3.7009,3.7016,3.7006,3.7007,3.704,3.707,3.7051,3.7069,3.7102,3.7072,3.7098,3.7096,3.7063,3.7032,3.7026,3.7021,3.6957,3.6943,3.6932,0,0,0,0,0,0,3.6956,3.6992,3.7017,3.6981,3.699,3.7017,3.6994,3.7024,3.7023,3.7029,3.7069,3.7072,3.7039,3.7049,3.7077,3.7015,3.7058,3.7051,3.7009,3.6997,3.6987,3.6984,3.7134,0,0,0,0,0,3.6936,3.6927,3.6958,3.6924,3.6927,3.696,3.6957,3.6982,3.6991,3.6995,3.7011,3.7018,3.7011,3.7004,3.6999,3.6955,3.6959,3.6931,3.6921,3.6912,3.6906,3.6883,3.6871,3.7001,3.7001,3.7001,0,0,3.6894,3.6912,3.6903,3.6909,3.6919,3.6907,3.6962,3.6947,3.6938,3.6992,3.6968,3.698,3.699,3.6954,3.6939,3.6961,3.6872,3.6906,3.6899,3.6897,3.6877,3.6864,3.6853,3.6998,3.6998,3.6999,0,0,3.681,3.6823,3.6796,3.6806,3.6821,3.6843,3.6837,3.686,3.6871,3.6848,3.6888,3.6877,3.6863,3.6869,3.687,3.679,3.682,3.6787,3.6733,3.671,3.67,3.6691,3.6662,3.6651,3.6781,3.6781,3.6781,0,3.6754,3.6739,3.6778,3.6761,3.6762,3.6813,3.6785,3.6792,3.6803,3.6802,3.6828,3.6812,3.6822,3.6788,3.6769,3.6769,3.6761,3.6784,3.6699,3.669,3.6683,3.6655,3.6644,3.6777,3.6777,3.6778,3.6778,0,3.667,3.6659,3.6635,3.6647,3.6646,3.6623,3.6657,3.6651,3.6676,3.6696,3.6671,3.6686,3.6685,3.6679,3.6702,3.6648,3.6661,3.6692,3.6736,3.6665,3.664,3.663,3.6771,3.6772,3.6774,3.6775,0,0,3.6538,3.6574,3.6564,3.6571,3.6592,3.6583,3.6562,3.6563,3.6557,3.6563,3.6546,3.6534,3.6563,3.6564,3.6589,3.657,3.6505,3.6603,3.6604,3.6583,3.6445,3.6421,3.6408,3.6526,3.6524,3.6523,3.6444,0,3.6458,3.6427,3.6462,3.6422,3.6412,3.6462,3.6444,3.6454,3.6472,3.6464,3.6484,3.6474,3.6514,3.6515,3.6498,3.6516,3.6477,3.6523,3.6509,3.6508,3.6503,3.6395,3.637,3.6295,3.6435,3.6433,3.6432,0,3.6361,3.6365,3.6325,3.635,3.6347,3.633,3.6334,3.6327,3.634,3.6354,3.6356,3.6387,3.6368,3.6412,3.6385,3.6415,3.6411,3.642,3.6418,3.6416,3.6464,3.639,3.6272,3.626,3.6417,3.6418,3.6419,0,3.6268,3.6263,3.6239,3.6243,3.6271,3.6258,3.6269,3.6284,3.6283,3.6286,3.6285,3.6285,3.6284,3.6283,3.6313,3.6342,3.6282,3.6328,3.6292,3.6291,3.6275,3.6275,3.6154,3.6275,3.6275,3.6275,3.6275,0,3.6175,3.6148,3.6198,3.6182,3.6154,3.6195,3.6165,3.618,3.6194,3.6181,3.6224,3.6211,3.6252,3.6243,3.6267,3.624,3.624,3.625,3.6256,3.6245,3.6244,3.6243,3.6248,3.6272,3.6273,3.6273,3.6274,0,3.6065,3.6098,3.6074,3.6104,3.6111,3.6088,3.6113,3.6099,3.6121,3.6105,3.6103,3.6136,3.6128,3.6159,3.6155,3.6171,3.6132,3.6147,3.6128,3.6132,3.6094,3.6097,3.5966,3.595,3.6082,3.6081,3.608,0,3.6003,3.5984,3.6012,3.6008,3.6017,3.601,3.6009,3.6048,3.6045,3.6059,3.6043,3.604,3.6039,3.6023,3.6046,3.6044,3.6059,3.6013,3.6058,3.6048,3.6057,3.6057,3.6055,3.6003,3.6001,3.6,3.5999,0,3.5889,3.5906,3.5905,3.5909,3.5907,3.5912,3.5919,3.5912,3.5955,3.5949,3.5943,3.5942,3.594,3.5935,3.5938,3.5948,3.5979,3.5985,3.5976,3.5964,3.5954,3.5958,3.6101,3.5987,3.5988,3.5989,3.599,3.599,3.5801,3.5786,3.5804,3.5801,3.5811,3.5817,3.5806,3.5827,3.5823,3.5826,3.5849,3.5838,3.5851,3.5859,3.5865,3.5856,3.5877,3.5865,3.5861,3.5858,3.5851,3.5956,3.5857,3.5857,3.5858,3.5858,3.5858,0,3.5688,3.5703,3.57,3.5709,3.5707,3.574,3.575,3.5744,3.5735,3.5746,3.5745,3.5737,3.5733,3.5756,3.5755,3.5743,3.5758,3.5741,3.5742,3.5743,3.5832,3.5839,3.573,3.573,3.573,3.573,3.573,3.573,3.563,3.5607,3.5627,3.5609,3.5624,3.5615,3.5617,3.5623,3.5632,3.5622,3.562,3.5636,3.5651,3.5652,3.5649,3.5656,3.5653,3.5631,3.5643,3.5725,3.5737,3.5749,3.5756,3.563,3.563,3.5555,3.5554,3.5554]}]]